User: anonymous   Login
Location: Days
(41.3591°N, 106.7339°W)
Time: 13:17:45
(UTC+00:00)
Language:

DMSP 5D-2 F13 DEB - Orbit

View from above orbital plane
View from above orbital plane
View from above satellite
View from above satellite

Ground track
Ground track

The orbit data is extracted from the following two-line orbital elements,

1 40400U 95015M   22341.80128950  .00002654  00000-0  88827-3 0  9996
2 40400  98.5762   0.8961 0150801 245.9573 112.5767 14.31988326406173
Epoch (UTC): 07 December 2022 19:13:51
Eccentricity: 0.0150801
inclination: 98.5762°
perigee height: 677 km
apogee height: 893 km
right ascension of ascending node: 0.8961°
argument of perigee: 245.9573°
revolutions per day: 14.31988326
mean anomaly at epoch: 112.5767°
orbit number at epoch: 40617

The dashed part of the orbit path shows where the satellite is in the earth's shadow,  

DLR